Regional Weather Roundup
Issued by NWS

Home | Current Version | Previous Version | Text Only | Print | Product List | Glossary Off
Versions: 1 2 3 4 5 6 7 8 9 10 11 12 13 14 15 16 17 18 19 20 21 22 23 24 25 26 27 28 29 30 31 32 33 34 35 36 37 38 39 40 41 42 43 44 45 46 47 48 49 50

304
ASUS44 KMEG 141400
RWRTN
TENNESSEE HOURLY STATE WEATHER ROUNDUP
NATIONAL WEATHER SERVICE MEMPHIS TN
800 AM CST THU DEC 14 2017

TNZ002-004-019-021-049-052-054-088>092-141500-
WEST TENNESSEE

CITY           SKY/WX    TMP DP  RH WIND       PRES   REMARKS
MEMPHIS INTL   PTCLDY    41  30  65 NE10      29.99R
NWS MEMPHIS      N/A     39 N/A N/A MISG        N/A
JACKSON        CLEAR     38  30  73 N5        29.99R WCI  34
DYERSBURG      CLOUDY    37  28  70 NE6       30.01R WCI  32
$$

TNZ008-025-027-028-033-062-065-066-141500-
NORTH MIDDLE TENNESSEE

CITY           SKY/WX    TMP DP  RH WIND       PRES   REMARKS
NASHVILLE      PTSUNNY   38  28  67 NW6       29.96S WCI  33
CLARKSVILLE    CLOUDY    35  22  58 N14       29.98R WCI  26
SMYRNA         MOSUNNY   35  30  82 NW6       29.96S WCI  30
CROSSVILLE     MOSUNNY   34  26  72 NW8       29.89R WCI  27
$$

TNZ061-075-076-078-094-096-097-141500-
SOUTH MIDDLE TENNESSEE

CITY           SKY/WX    TMP DP  RH WIND       PRES   REMARKS
WINCHESTER     SUNNY     30  27  86 CALM      29.93S
$$

TNZ017-018-042-046-047-141500-
NORTHEAST TENNESSEE

CITY           SKY/WX    TMP DP  RH WIND       PRES   REMARKS
TRI CITIES     MOSUNNY   38  27  64 SW7       29.85R WCI  33
$$

TNZ012-013-036-069-073-074-141500-
CENTRAL EAST TENNESSEE

CITY           SKY/WX    TMP DP  RH WIND       PRES   REMARKS
KNOXVILLE      MOSUNNY   40  29  64 W8        29.89R WCI  34
OAK RIDGE      SUNNY     35  25  66 CALM      29.92R
$$

TNZ083-085-099-141500-
SOUTHEAST TENNESSEE

CITY           SKY/WX    TMP DP  RH WIND       PRES   REMARKS
CHATTANOOGA    MOSUNNY   34  27  75 CALM      29.93R
$$

SKY/WX REPORTED AS FAIR MEANS FEW OR NO CLOUDS BELOW
12 THOUSAND FEET.





USA.gov is the U.S. government's official web portal to all federal, state and local government web resources and services.